Terminal Aerodrome Forecast
Issued by NWS

Current Version | Previous Version | Graphics & Text | Print | Product List | Glossary On
Versions: 1 2 3 4 5 6 7 8 9 10 11 12 13 14 15 16 17 18 19 20
000
FTUS41 KPBZ 150500
TAFMGW
TAF
KMGW 150533Z 1506/1606 VRB03KT P6SM SKC
     FM150800 VRB03KT 3SM BR SCT250
     FM151000 VRB03KT 1/4SM FG OVC001
     FM151400 17005KT P6SM SCT250=

USA.gov is the U.S. government's official web portal to all federal, state and local government web resources and services.